This is the latest recevied weather packets stored in our database for station/object BG4WDV-11. If no packets are shown the sender has not sent any weather packets the latest 1 day(s).
| Time | Temp. | Humidity | Pressure | Rain* | Wind** | Luminosity | Snow |
|---|---|---|---|---|---|---|---|
| 1778057865 | 30° C | 41% | 1006.2 hPa | 0 mm | 1.34 m/s, 45° | - | - |
| 1778057805 | 29.44° C | 41% | 1006.3 hPa | 0 mm | 0.89 m/s, 0° | - | - |
| 1778057746 | 29.44° C | 41% | 1006.3 hPa | 0 mm | 0.45 m/s, 45° | - | - |
| 1778057685 | 29.44° C | 40% | 1006.3 hPa | 0 mm | 0.89 m/s, 45° | - | - |
| 1778057625 | 29.44° C | 40% | 1006.1 hPa | 0 mm | 0.89 m/s, 225° | - | - |
| 1778057565 | 29.44° C | 40% | 1006.3 hPa | 0 mm | 0.45 m/s, 45° | - | - |
| 1778057505 | 29.44° C | 40% | 1006.4 hPa | 0 mm | 0 m/s | - | - |
| 1778057445 | 29.44° C | 40% | 1006.2 hPa | 0 mm | 0 m/s | - | - |
| 1778057385 | 29.44° C | 40% | 1006.2 hPa | 0 mm | 0.45 m/s, 225° | - | - |
| 1778057326 | 29.44° C | 39% | 1006.2 hPa | 0 mm | 0.89 m/s, 0° | - | - |
| 1778057265 | 30° C | 39% | 1006.4 hPa | 0 mm | 0.45 m/s, 225° | - | - |
| 1778057205 | 30° C | 39% | 1006.3 hPa | 0 mm | 0.45 m/s, 0° | - | - |
| 1778057145 | 30° C | 39% | 1006.3 hPa | 0 mm | 0.89 m/s, 225° | - | - |
| 1778057085 | 30° C | 39% | 1006.2 hPa | 0 mm | 1.34 m/s, 0° | - | - |
| 1778057025 | 30° C | 38% | 1006.4 hPa | 0 mm | 1.34 m/s, 0° | - | - |
| 1778056965 | 30.56° C | 38% | 1006.4 hPa | 0 mm | 1.34 m/s, 0° | - | - |
| 1778056905 | 30.56° C | 38% | 1006.3 hPa | 0 mm | 1.34 m/s, 0° | - | - |
| 1778056845 | 30.56° C | 38% | 1006.4 hPa | 0 mm | 1.34 m/s, 0° | - | - |
| 1778056785 | 31.11° C | 38% | 1006.5 hPa | 0 mm | 0.89 m/s, 0° | - | - |
| 1778056725 | 31.11° C | 38% | 1006.3 hPa | 0 mm | 0.45 m/s, 0° | - | - |
| 1778056665 | 31.11° C | 38% | 1006.3 hPa | 0 mm | 0.45 m/s, 0° | - | - |
| 1778056605 | 31.11° C | 38% | 1006.3 hPa | 0 mm | 0.89 m/s, 225° | - | - |
| 1778056545 | 31.11° C | 38% | 1006.4 hPa | 0 mm | 0.89 m/s, 45° | - | - |
| 1778056485 | 31.11° C | 38% | 1006.3 hPa | 0 mm | 0.89 m/s, 0° | - | - |
| 1778056425 | 31.11° C | 38% | 1006.3 hPa | 0 mm | 0.45 m/s, 0° | - | - |
* Rain latest hour (hover to see other rain measurements)
** Current wind speed in m/s (hover to see current wind gust speed)